map of KAJ home
Great Circle Mapper logo
KAJ - Airport
Location
City:  Kajaani, Finland
ICAO / IATA:EFKI / KAJ

Details
Type:Airport (Aerodrome, Airfield)
Use:Public/Civil
Latitude:6417'08"N (64.285472)
Longitude:2741'33"E (27.692414)
Datum:WGS 1984
Elevation:483 ft (147 m)
Variation:11.05E (WMM2015 magnetic declination)
0.17 annual change
Runways:1
Longest:8199 × 157 ft (2499 × 48 m), paved

Time
Time Zone:UTC+2 (DST+3)
Local Time:

Weather
METAR:EFKI 042350Z AUTO 31006KT 280V350 9999 SCT030 OVC058 11/09 Q1016

Related Locations
Nearby:
Farthest:NZWD: 11169 mi / 17975 km
McMurdo Station [Williams Field], Ross Island, AQ

Find:

   beyond  
but within

Other Information
Maps:
NOTAMs:
Links:
Sources:

  
flag of Finland   

Sectional Chart

Flight Planning
at skyvector.com

Satellite Image

Google Maps Satellite view

 

Copyright © 2004-2015 Karl L. Swartz. All rights reserved.
The Great Circle Mapper name and logo are trademarks of the Great Circle Mapper.
All other trademarks mentioned herein belong to their respective owners.
Please see credits for attibutions and further copyright information.

  Follow gcmap on Facebook Follow gcmap on Twitter Follow gcmap on Google+

hCard Microformat

Geo Microformat